Simultaneous Nadir Overpasses (SNOs) Predictions

Prediction of SNOs between GOES-15 and METOP-A Satellite Orbit:

Table of predicted SNOs for the next 14.0 days since TLE Epoch: 11/2/2013
Index Date Time (GOES-15) GOES-15 Lat,Lon METOP-A Lat,Lon Distance(km) Time Diff (sec)
1 11/02/2013 06:16:46 0.33,-135.01 0.95,-132.29 310.31 80
2 11/03/2013 18:35:36 -0.32,-135.03 0.10,-136.84 206.79 80
3 11/04/2013 18:17:36 -0.33,-135.06 -1.02,-131.85 365.64 80
4 11/06/2013 06:36:37 0.31,-135.13 0.00,-136.45 150.25 80
5 11/07/2013 06:13:17 0.32,-135.15 1.13,-131.45 421.16 80
6 11/08/2013 18:32:08 -0.30,-135.15 -0.09,-136.01 97.71 80
7 11/09/2013 18:14:08 -0.31,-135.18 -1.22,-131.01 473.99 80
8 11/11/2013 06:33:08 0.29,-135.24 0.22,-135.61 42.17 80
9 11/13/2013 18:28:39
